sat.trackr.live / text

‹ back to catalog

SITRO-AIS-57

NORAD 67256 · 2025-313J

PAYLOAD ACTIVE UNKNOWN

§ Identity

Operator
Country
CIS
Launch date
2025-12-28
Launch site
VOSTO
Launch vehicle
Mass (kg)
RCS (m²)

External: N2YO · Heavens-Above · Gunter

§ Orbital elements

Epoch: 2026-09-19T10:35:38.581728Z

Period
94.45 min
Inclination
97.3845°
Eccentricity
0.0015776
Mean motion
15.24549577 rev/d
Perigee alt
481.3 km
Apogee alt
503.0 km
Semi-major
6,870.3 km
B*
2.3870e-4
RAAN
335.6524°
Arg perigee
36.0958°
Mean anomaly
324.1342°
Rev number
4,030

§ Raw data

SITRO-AIS-571 67256U 25313J   26262.44141877  .00005825  00000+0  23870-3 0  99962 67256  97.3845 335.6524 0015776  36.0958 324.1342 15.24549577 40304

JSON: /api/v1/satellites/67256 · /tle

For live sub-satellite position, see the globe view (requires WebGL).

§ Visibility from observer

Set your observer location to see the next 7 days of passes ≥ 10°. The values pass through the URL so the page stays shareable.

No JS? Fill the form by hand. The geolocation button needs JavaScript.